Wind_Speed
42 38 35 35 38 40 42 40 38 34 31 31 31 26 33 47 47 47 45 51 56 52 54 51 46 46 50 48 50 51 51 49
45 41 38 35 34 38 40 44 38 36 32 30 32 28 36 51 49 52 54 56 58 52 47 48 43 41 42 45 47 49 45 44
46 43 42 40 37 38 42 41 39 36 32 30 31 30 34 47 54 56 56 59 60 54 49 48 46 40 35 40 44 40 36 37
47 47 44 41 41 37 43 39 37 34 34 30 31 29 33 42 48 59 55 57 56 53 44 40 32 32 33 38 38 33 33 37
53 51 48 41 42 39 42 38 34 31 34 30 28 29 28 32 44 50 57 54 53 50 36 25 22 22 24 28 27 27 29 30
53 49 46 39 43 40 42 36 34 30 31 27 26 26 28 34 34 50 49 45 35 32 28 20 15 16 19 23 25 19 19 18
54 53 54 42 44 42 39 33 33 31 32 26 28 25 31 34 28 31 48 40 31 29 23 18 16 17 14 21 23 17 16 18
57 58 58 48 45 45 42 30 32 32 31 29 29 29 30 33 27 29 35 39 38 31 23 19 15 15 15 16 17 19 26 23
61 61 58 45 49 46 42 30 30 34 33 29 29 31 32 33 30 36 37 39 39 34 28 22 18 16 15 14 15 12 16 19
63 64 61 47 51 44 41 30 29 34 33 29 28 33 36 34 36 40 43 38 38 32 30 24 20 16 13 12 11 11 17 16
67 62 59 50 52 47 39 30 30 34 34 27 28 34 34 33 42 44 41 38 35 34 31 25 20 20 13 10 9 13 13 18
67 60 61 53 52 46 35 29 32 34 30 26 29 33 30 37 44 44 39 37 34 34 33 25 23 20 16 12 9 14 20 21
66 61 57 51 51 44 31 28 34 34 30 28 29 36 31 44 49 45 39 35 35 40 35 26 27 24 19 18 15 13 12 10
67 59 56 53 49 40 30 29 35 34 31 28 28 30 31 47 52 47 40 38 39 39 32 29 27 27 23 16 18 16 15 16
65 64 55 52 48 39 32 33 37 35 29 30 28 28 34 48 55 49 46 40 42 39 35 32 32 28 25 23 23 20 14 16
60 59 54 56 47 38 33 36 39 35 29 31 25 31 35 45 52 57 48 46 44 42 43 38 37 34 34 29 27 24 21 22
56 57 53 53 46 36 34 37 39 34 29 29 23 33 34 39 56 56 56 57 48 43 45 45 41 38 36 34 34 34 29 24
54 54 50 51 42 35 37 38 38 32 32 30 24 34 32 34 56 58 53 52 45 42 42 47 46 44 40 40 39 40 36 36
53 53 47 50 39 35 39 41 37 33 31 29 27 33 35 35 49 53 54 55 51 52 52 52 49 50 44 40 37 37 36 33
54 51 48 48 38 37 42 44 38 36 32 30 33 29 39 36 37 56 57 56 57 56 52 53 50 48 43 39 39 39 39 38
Wind_Direction
322 316 310 305 294 287 282 275 266 253 253 261 251 248 244 223 219 223 224 234 243 251 252 258 261 261 251 252 251 248 251 254
321 313 312 303 301 293 282 275 271 259 253 264 262 251 240 228 234 232 228 234 244 255 260 261 273 265 246 245 244 247 249 252
316 314 310 308 304 292 291 278 272 262 253 262 265 257 237 232 232 235 232 237 242 253 262 272 273 255 241 237 238 243 247 252
313 314 307 310 304 295 287 282 272 258 251 261 266 261 250 234 232 235 237 240 246 252 268 268 259 245 227 233 243 242 240 243
309 311 309 306 305 300 285 277 269 252 249 258 265 266 242 239 229 233 236 238 251 263 263 240 247 233 228 234 231 228 238 248
305 307 314 306 304 300 291 278 263 242 247 255 259 249 229 244 238 228 234 242 250 248 231 230 205 210 221 219 224 226 233 240
301 302 310 303 306 305 301 280 261 241 244 251 256 249 229 237 240 235 233 238 231 218 216 209 219 228 232 216 212 203 214 198
299 303 307 301 303 307 305 276 257 238 241 247 250 248 227 236 234 219 219 220 223 210 201 192 200 198 199 204 197 195 196 207
298 301 306 299 303 304 299 270 249 232 239 245 248 238 234 234 224 215 216 220 220 198 193 195 178 175 175 171 168 171 192 213
295 300 302 302 302 304 295 267 243 228 236 239 245 231 232 238 221 210 212 214 208 200 189 185 179 175 168 159 161 174 210 224
293 296 300 303 302 305 292 259 235 223 233 239 246 230 229 224 213 210 205 210 205 192 183 175 172 179 178 167 186 208 223 236
289 294 298 299 299 304 287 252 226 221 235 237 243 229 229 214 207 199 197 200 198 195 177 180 181 165 168 173 191 225 241 242
287 290 296 293 298 300 277 246 222 221 233 237 239 229 231 211 203 197 194 202 198 192 187 191 179 175 180 181 186 194 202 213
286 287 292 290 294 292 268 237 222 223 234 241 240 235 225 211 206 194 196 199 197 188 188 194 201 196 187 188 187 203 213 206
279 285 289 288 290 284 258 227 219 223 231 237 238 230 216 210 208 207 201 201 199 198 207 204 209 214 209 220 214 224 229 231
278 285 288 284 288 273 249 220 216 220 228 235 235 223 213 211 212 206 207 201 206 214 220 223 218 222 221 215 218 221 230 249
275 279 285 281 289 263 237 216 214 218 226 237 232 223 219 217 210 208 213 215 218 220 226 222 223 231 220 220 239 232 239 248
274 277 279 279 283 253 226 216 214 215 229 237 234 223 222 219 210 212 211 214 209 213 223 228 230 227 229 242 238 241 245 254
271 281 274 277 274 242 220 216 212 215 230 234 233 222 224 216 215 215 212 207 211 218 223 228 224 232 230 231 241 248 251 254
274 275 273 275 263 231 216 213 212 216 229 231 228 229 225 218 220 213 215 209 215 217 220 223 226 220 227 233 246 252 250 254
Height
10725 10722 10719 10714 10712 10709 10705 10704 10705 10704 10703 10705 10707 10709 10713 10713 10710 10712 10712 10710 10709 10712 10715 10720 10721 10719 10719 10719 10722 10726 10730 10734
10718 10714 10712 10709 10703 10700 10697 10695 10695 10697 10697 10697 10696 10700 10704 10704 10704 10705 10702 10703 10704 10709 10710 10713 10712 10709 10709 10711 10715 10718 10723 10726
10710 10706 10704 10702 10696 10691 10688 10686 10686 10688 10689 10688 10688 10689 10693 10695 10696 10697 10697 10698 10700 10704 10704 10706 10703 10702 10701 10705 10709 10713 10716 10718
10702 10699 10695 10691 10686 10683 10679 10677 10676 10677 10680 10679 10680 10683 10682 10685 10687 10690 10692 10694 10696 10698 10701 10699 10696 10695 10695 10700 10705 10708 10709 10711
10694 10691 10686 10682 10676 10673 10670 10667 10667 10668 10671 10671 10672 10674 10673 10674 10678 10683 10686 10688 10690 10694 10694 10693 10692 10691 10693 10698 10701 10702 10705 10709
10684 10683 10679 10673 10667 10664 10660 10658 10658 10660 10663 10664 10665 10665 10666 10667 10670 10677 10680 10687 10688 10689 10693 10691 10690 10690 10692 10694 10697 10699 10703 10705
10674 10672 10670 10663 10658 10654 10650 10650 10649 10652 10655 10657 10658 10658 10660 10662 10665 10669 10675 10682 10683 10686 10688 10688 10688 10689 10690 10692 10695 10697 10701 10705
10664 10662 10660 10654 10648 10645 10641 10641 10641 10643 10646 10648 10650 10651 10654 10657 10660 10665 10670 10674 10676 10681 10683 10686 10687 10688 10688 10691 10691 10694 10699 10703
10652 10650 10649 10645 10638 10635 10631 10631 10632 10634 10639 10639 10641 10643 10646 10650 10654 10658 10664 10667 10671 10676 10679 10682 10684 10686 10687 10688 10689 10692 10697 10702
10642 10639 10637 10634 10628 10624 10622 10622 10623 10626 10630 10632 10635 10637 10640 10643 10647 10652 10657 10663 10667 10672 10676 10679 10682 10684 10686 10687 10689 10691 10696 10700
10632 10629 10626 10623 10619 10614 10612 10614 10615 10619 10623 10624 10626 10629 10631 10635 10641 10647 10652 10658 10663 10668 10672 10676 10679 10681 10683 10685 10687 10691 10694 10698
10622 10619 10617 10614 10609 10604 10603 10605 10608 10611 10616 10617 10618 10621 10624 10629 10634 10641 10647 10653 10658 10665 10668 10673 10677 10679 10682 10684 10687 10689 10692 10695
10613 10608 10607 10604 10598 10594 10595 10597 10601 10605 10610 10611 10612 10614 10617 10623 10629 10637 10642 10648 10654 10659 10665 10670 10673 10675 10679 10681 10684 10687 10689 10691
10602 10597 10598 10593 10588 10585 10586 10589 10593 10598 10602 10604 10605 10606 10611 10617 10625 10631 10637 10644 10649 10656 10661 10665 10670 10674 10675 10678 10681 10685 10686 10688
10590 10588 10587 10582 10578 10575 10577 10580 10586 10592 10595 10597 10599 10600 10605 10612 10619 10625 10632 10637 10645 10650 10656 10661 10664 10668 10671 10673 10677 10679 10682 10685
10577 10576 10576 10570 10567 10566 10568 10572 10579 10585 10588 10590 10592 10595 10600 10606 10612 10619 10626 10632 10639 10645 10651 10655 10659 10663 10665 10667 10671 10674 10675 10679
10565 10564 10564 10559 10558 10558 10560 10565 10572 10577 10582 10583 10584 10589 10594 10597 10604 10612 10619 10626 10632 10639 10644 10649 10652 10657 10658 10661 10665 10668 10669 10672
10552 10553 10552 10548 10548 10549 10552 10558 10565 10571 10577 10578 10578 10581 10587 10590 10597 10605 10612 10619 10626 10632 10637 10642 10647 10649 10653 10656 10658 10660 10662 10665
10539 10541 10540 10538 10537 10540 10546 10550 10557 10564 10569 10572 10572 10575 10580 10585 10590 10598 10605 10612 10619 10625 10630 10635 10639 10643 10646 10648 10651 10654 10656 10656
10525 10528 10527 10526 10528 10531 10539 10545 10550 10557 10562 10564 10566 10568 10573 10578 10584 10591 10599 10605 10612 10619 10622 10627 10633 10637 10640 10642 10644 10647 10648 10648